Regional Weather Roundup
Issued by NWS Charleston, WV

Home | Current Version | Previous Version | Graphics & Text | Print | Product List | Glossary On
Versions: 1 2 3 4 5 6 7 8 9 10 11 12 13 14 15 16 17 18 19 20 21 22 23 24 25 26 27 28 29 30 31 32 33 34 35 36 37 38 39 40 41 42 43 44 45 46 47 48
000
ASUS41 KRLX 191410
RWRRLX
West Virginia Regional Weather Roundup
National Weather Service Charleston WV
900 AM EST FRI DEC 19 2014

Note: "fair" indicates few or no clouds below 12,000 feet with no
significant weather and/or obstructions to visibility.

WVZ003-191500-
Northern Panhandle of West Virginia

CITY           SKY/WX    TMP DP  RH WIND       PRES   REMARKS
WHEELING       CLOUDY    27  23  85 SW6       30.21R
$$

WVZ009-191500-
Northwest West Virginia

CITY           SKY/WX    TMP DP  RH WIND       PRES   REMARKS
PARKERSBURG    CLOUDY    29  23  78 CALM      30.28S
$$

WVZ006-191500-
Western West Virginia

CITY           SKY/WX    TMP DP  RH WIND       PRES   REMARKS
HUNTINGTON     CLOUDY    29  22  75 CALM      30.28R
$$

WVZ015-191500-
West Central West Virginia

CITY           SKY/WX    TMP DP  RH WIND       PRES   REMARKS
CHARLESTON     CLOUDY    29  21  72 NW3       30.27R
$$

WVZ022-031-191500-
North Central West Virginia

CITY           SKY/WX    TMP DP  RH WIND       PRES   REMARKS
CLARKSBURG     CLOUDY    28  22  78 W5        30.23R
MORGANTOWN     CLOUDY    28  20  71 SW8       30.22R
$$

WVZ025-035-042-045-191500-
Southern West Virginia

CITY           SKY/WX    TMP DP  RH WIND       PRES   REMARKS
BECKLEY        CLOUDY    24  19  81 NW6       30.17R
LOGAN          CLOUDY    28  23  80 CALM      30.22R
BLUEFIELD      CLOUDY    28  21  75 W9        30.14R
LEWISBURG      SUNNY     28  22  76 SW7       30.15R
$$

WVZ047-191500-
Northern Mountains of West Virginia

CITY           SKY/WX    TMP DP  RH WIND       PRES   REMARKS
ELKINS         CLOUDY    25  21  85 W6        30.18S
$$

WVZ052-191500-
Eastern Panhandle of West Virginia

CITY           SKY/WX    TMP DP  RH WIND       PRES   REMARKS
MARTINSBURG    CLOUDY    35  20  54 NW16      30.17R
PETERSBURG     CLOUDY    31  20  64 N6        30.19S
$$



USA.gov is the U.S. government's official web portal to all federal, state and local government web resources and services.